Simultaneous Nadir Overpasses (SNOs) Predictions

Prediction of SNOs between GOES-15 and TERRA Satellite Orbit:

Table of predicted SNOs for the next 14.0 days since TLE Epoch: 5/18/2024
Index Date Time (GOES-15) GOES-15 Lat,Lon TERRA Lat,Lon Distance(km) Time Diff (sec)
1 05/18/2024 05:23:54 -0.19, 61.71 -1.04, 65.74 458.15 80
2 05/18/2024 17:46:39 0.18, 61.70 0.02, 60.85 96.01 80
3 05/20/2024 17:26:41 0.19, 61.74 0.87, 65.03 373.76 80
4 05/21/2024 05:49:15 -0.18, 61.77 0.17, 60.19 179.96 80
5 05/23/2024 05:29:16 -0.18, 61.82 -0.75, 64.36 289.23 80
6 05/23/2024 17:52:01 0.17, 61.82 -0.31, 59.48 265.29 80
7 05/25/2024 17:32:00 0.19, 61.88 0.54, 63.67 203.28 80
8 05/26/2024 05:54:35 -0.17, 61.91 0.47, 58.83 350.53 80
9 05/28/2024 05:34:34 -0.19, 61.98 -0.43, 63.01 117.57 80
10 05/28/2024 17:57:18 0.17, 61.98 -0.65, 58.14 437.22 80
11 05/30/2024 17:37:16 0.19, 62.05 0.26, 62.32 31.27 80
